Location: Amsterdam
(30.7274°N, 84.4357°W)
Time: 17:18:21
(UTC+00:00)

Injun/Solrad 3 - Pass Details

Date: 24 February 2026
Orbit: 871 x 985 km, 66.8° (Epoch: 11 March)

Event Time Altitude Azimuth Distance (km) Brightness Sun altitude
Rises 02:10:55 0° 317° (NW) 3,621 11.7 -34.8°
Reaches altitude 10° 02:13:59 10° 303° (WNW) 2,690 11.0 -35.4°
Maximum altitude 02:18:40 22° 255° (WSW) 1,964 10.0 -36.4°
Drops below altitude 10° 02:23:24 10° 206° (SSW) 2,719 10.4 -37.4°
Enters shadow 02:23:31 10° 205° (SSW) 2,751 10.5 -37.4°
Sets 02:26:33 0° 192° (SSW) 3,670 - -38.1°
